SKY MUSTER 2 (41794 NORAD) Tracking and Keplerian Element Data

This shows tracking and keplerian element data for the satellite.

Feedback or suggestion? Click here.




ElementValue
Catalog41794
NameSKY MUSTER 2
Epoch Orbit653
Epoch Day198.77686641
Epoch Year2018
RAAN28.9684
Inclination0.0144
Eccentricity0.0001508
Argument of Perigee78.9435
Mean Anonmoly252.1046
Mean Motion1.00270409
Decay Rate-2.65E-06
L11 41794U 16060B 18198.77686641 -.00000265 00000-0 00000-0 0 9994
L22 41794 0.0144 28.9684 0001508 78.9435 252.1046 1.00270409 6530

Live tracking and technical data element details for SKY MUSTER 2 (NORAD 41794). SKY MUSTER 2 can be tracked NOW for your location showing map with azimuth and elevation plus other details from your city location.

Track the satellite on the map from your city or location and see movement details for azimuth, elevation, latitude, longitude, range, height, and movement on the map or in text.







IsCatalogInMostPopularTable: catalog: 41794, numindb: 70
Update: records affected: 1



GetName: 41794 SKY MUSTER 2

Hit Count: updated at: Thu, 19 Jul 2018 03:42:26 GMT